Flag for United Kingdom Weather past 2 weeks in Canterbury, England, United Kingdom

Now
44 °F

Quite cool.


Feels Like: 39 °F
Forecast: N/A
Wind: 8 mph from Southwest

Location: Manston

Current Time: Jan 25, 2015 at 4:44:31 PM

Latest Report: Jan 25, 2015 at 4:00 PM


Visibility: 13 mi

Pressure: 30.38 "Hg

Humidity: 76%

Dew point: 36 °F

Location of CanterburyLocation

Historic Weather in Canterbury — Graph

°F

Canterbury temperature yesterday

Maximum temperature yesterday: 45 °F (at 3:00 AM)
Minimum temperature yesterday: 36 °F (at 10:00 PM)
Average temperature yesterday: 41 °F

Past Weeks' High & Low Weather Summary

 TemperatureHumidityPressure
High52 °F (Jan 12, 9:00 PM)97% (Jan 12, 5:00 PM)30.48 "Hg (Jan 12, 5:00 PM)
Low28 °F (Jan 20, 8:00 AM)58% (Jan 10, 5:00 PM)29.23 "Hg (Jan 15, 5:00 AM)
Average40 °F83%29.91 "Hg
* Reported Jan 10 3:00 PM — Jan 25 3:00 PM, Canterbury, Weather by CustomWeather, © 2014

Note: Actual official high and low records may vary slightly from our data, if they occured in-between our weather recording intervals... More about our weather records

Advertising

Canterbury weather history for previous 24 hours

 ConditionsComfort  
Time TempWeatherWind HumidityBarometerVisibility
3:00 PM
Jan 25
44 °FQuite cool.10 mph74%30.39 "Hg14 mi
2:00 PM44 °FQuite cool.10 mph72%30.40 "Hg13 mi
1:00 PM45 °FQuite cool.10 mph71%30.42 "Hg12 mi
12:00 PM45 °FQuite cool.13 mph68%30.44 "Hg11 mi
11:00 AM42 °FQuite cool.10 mph76%30.45 "Hg11 mi
10:00 AM37 °FChilly.9 mph84%30.46 "Hg9 mi
9:00 AM38 °FChilly.6 mph85%30.48 "Hg9 mi
8:00 AM36 °FChilly.8 mph87%30.47 "Hg8 mi
7:00 AM35 °FChilly.9 mph89%30.47 "Hg7 mi
6:00 AM34 °FChilly.9 mph90%30.47 "Hg7 mi
5:00 AM33 °FChilly.9 mph92%30.47 "Hg6 mi
4:00 AM32 °FChilly.7 mph90%30.46 "Hg7 mi
3:00 AM34 °FChilly.8 mph87%30.46 "Hg7 mi
2:00 AM34 °FChilly.8 mph86%30.45 "Hg7 mi
1:00 AM34 °FChilly.9 mph83%30.45 "Hg9 mi
12:00 AM35 °FChilly.9 mph84%30.45 "Hg8 mi
11:00 PM
Jan 24
36 °FChilly.9 mph84%30.45 "Hg7 mi
10:00 PM36 °FChilly.10 mph84%30.45 "Hg8 mi
9:00 PM37 °FChilly.12 mph84%30.44 "Hg9 mi
8:00 PM38 °FChilly.9 mph87%30.43 "Hg9 mi
7:00 PM39 °FChilly.10 mph82%30.41 "Hg8 mi
6:00 PM40 °FQuite cool.12 mph80%30.39 "Hg10 mi
5:00 PM41 °FQuite cool.15 mph76%30.37 "Hg9 mi
4:00 PM42 °FQuite cool.17 mph73%30.34 "Hg11 mi
Weather by CustomWeather, © 2014

See weather overviewHow to use our weather pages